This is the latest recevied weather packets stored in our database for station/object HB9TJM-8. If no packets are shown the sender has not sent any weather packets the latest 10 day(s).
| Time | Temp. | Humidity | Pressure | Rain* | Wind** | Luminosity | Snow |
|---|---|---|---|---|---|---|---|
| 1777353691 | 11.67° C | 54% | 1016.5 hPa | 0 mm | - | 34 W/m² | - |
| 1777353691 | 11.67° C | 54% | 1016.5 hPa | 0 mm | - | 34 W/m² | - |
| 1777353383 | 11.67° C | 55% | 1015.9 hPa | 0 mm | - | 29 W/m² | - |
| 1777353383 | 11.67° C | 55% | 1015.9 hPa | 0 mm | - | 29 W/m² | - |
| 1777353075 | 11.11° C | 55% | 1016.4 hPa | 0 mm | - | 24 W/m² | - |
| 1777353075 | 11.11° C | 55% | 1016.4 hPa | 0 mm | - | 24 W/m² | - |
| 1777352768 | 11.11° C | 55% | 1016.3 hPa | 0 mm | - | 19 W/m² | - |
| 1777352461 | 11.11° C | 56% | 1016.3 hPa | 0 mm | - | 15 W/m² | - |
| 1777352461 | 11.11° C | 56% | 1016.3 hPa | 0 mm | - | 15 W/m² | - |
| 1777352154 | 11.67° C | 55% | 1016.1 hPa | 0 mm | - | 13 W/m² | - |
| 1777352153 | 11.67° C | 55% | 1016.1 hPa | 0 mm | - | 13 W/m² | - |
| 1777351846 | 11.11° C | 56% | 1015.9 hPa | 0 mm | - | 13 W/m² | - |
| 1777351846 | 11.11° C | 56% | 1015.9 hPa | 0 mm | - | 13 W/m² | - |
| 1777351539 | 11.11° C | 56% | 1016 hPa | 0 mm | - | 12 W/m² | - |
| 1777351539 | 11.11° C | 56% | 1016 hPa | 0 mm | - | 12 W/m² | - |
| 1777351231 | 11.11° C | 56% | 1016.6 hPa | 0 mm | - | 9 W/m² | - |
| 1777350923 | 11.11° C | 55% | 1016.1 hPa | 0 mm | - | 6 W/m² | - |
| 1777350616 | 11.11° C | 55% | 1015.9 hPa | 0 mm | - | 3 W/m² | - |
| 1777350616 | 11.11° C | 55% | 1015.9 hPa | 0 mm | - | 3 W/m² | - |
| 1777350309 | 11.11° C | 56% | 1016.1 hPa | 0 mm | - | 1 W/m² | - |
| 1777350309 | 11.11° C | 56% | 1016.1 hPa | 0 mm | - | 1 W/m² | - |
| 1777349694 | 11.11° C | 55% | 1016.3 hPa | 0 mm | - | 0 W/m² | - |
| 1777349694 | 11.11° C | 55% | 1016.3 hPa | 0 mm | - | 0 W/m² | - |
| 1777349387 | 11.11° C | 55% | 1016.4 hPa | 0 mm | - | 0 W/m² | - |
| 1777349386 | 11.11° C | 55% | 1016.4 hPa | 0 mm | - | 0 W/m² | - |
* Rain latest hour (hover to see other rain measurements)
** Current wind speed in m/s (hover to see current wind gust speed)